Seattle, WA
on Wednesday, November 14, 2012

Wednesday
Previous Day Next Day
Daily Summary
 ActualAverageRecord
Temperature
Mean Temperature °F 46°F  
Max Temperature 52°F 51°F 65°F (1995)
Min Temperature 41°F 40°F 9°F (1955)
Degree Days
Heating Degree Days 18 19  
Month to date heating degree days 226 249  
Since 1 July heating degree days 719 846  
Cooling Degree Days 0 0  
Month to date cooling degree days 0 0  
Year to date cooling degree days 177 189  
Moisture
Dew Point 43°F   
Average Humidity 82    
Maximum Humidity 93    
Minimum Humidity 71    
Precipitation
Precipitation 0.03 in 0.23 in 2.61 in (2001)
Month to date precipitation 1.96 2.96  
Year to date precipitation 35.09 28.53  
Snow
Snow 0.00 in in T in (1963)
Month to date snowfall 0.0  
Since 1 July snowfall 0.0  
Snow Depth 0.00 in   
Wind
Wind Speed 6 mph   
Max Wind Speed 13 mph   
Max Gust Speed 16 mph   
Visibility 9 miles   
Events Rain   

Key: T is trace of precipitation, MM is missing value
Source: NWS Daily Summary
Time(PST)TemperatureDew PointHumidity Pressure Visibility Wind DirectionWind SpeedGust SpeedPrecipitationEvents Conditions
12:53 AM 48.9°F 46.0°F 90% 30.20 in 10.0 miles SSE 8.1 mph - N/A   Overcast
1:30 AM 48.2°F 46.4°F 93% 30.19 in 8.0 miles SSW 5.8 mph - N/A   Mostly Cloudy
1:53 AM 48.9°F 46.9°F 93% 30.22 in 10.0 miles SW 6.9 mph - N/A   Overcast
2:53 AM 48.9°F 46.0°F 90% 30.23 in 10.0 miles SW 6.9 mph - 0.00 in   Overcast
3:53 AM 48.9°F 46.0°F 90% 30.23 in 10.0 miles SW 6.9 mph - 0.00 in   Overcast
4:37 AM 48.2°F 46.4°F 93% 30.21 in 5.0 miles SSW 4.6 mph - 0.02 in Rain Light Rain
4:53 AM 48.9°F 46.0°F 90% 30.24 in 5.0 miles SSW 3.5 mph - 0.02 in   Overcast
5:44 AM 48.2°F 44.6°F 87% 30.23 in 0.5 miles NNW 8.1 mph - 0.01 in Rain Light Rain
5:53 AM 48.0°F 45.0°F 89% 30.26 in 0.5 miles NNW 8.1 mph - 0.01 in Rain Light Rain
6:02 AM 46.4°F 44.6°F 93% 30.24 in 7.0 miles NNW 4.6 mph - 0.00 in Rain Light Rain
6:53 AM 46.9°F 44.1°F 90% 30.27 in 10.0 miles NW 4.6 mph - 0.00 in   Overcast
7:49 AM 46.4°F 44.6°F 93% 30.26 in 10.0 miles Calm Calm - N/A   Mostly Cloudy
7:53 AM 46.9°F 44.1°F 90% 30.29 in 10.0 miles Calm Calm - N/A   Mostly Cloudy
8:32 AM 46.4°F 44.6°F 93% 30.28 in 9.0 miles NW 3.5 mph - 0.00 in   Overcast
8:53 AM 46.9°F 44.1°F 90% 30.31 in 10.0 miles NW 4.6 mph - 0.00 in   Overcast
9:53 AM 46.9°F 44.1°F 90% 30.33 in 8.0 miles NW 3.5 mph - 0.00 in   Overcast
10:53 AM 48.0°F 46.0°F 93% 30.34 in 6.0 miles WNW 3.5 mph - N/A   Overcast
11:47 AM 48.2°F 46.4°F 93% 30.31 in 9.0 miles NW 3.5 mph - N/A   Overcast
11:53 AM 48.9°F 46.0°F 90% 30.34 in 9.0 miles WNW 3.5 mph - N/A   Overcast
12:25 PM 50.0°F 44.6°F 82% 30.31 in 10.0 miles Calm Calm - N/A   Mostly Cloudy
12:53 PM 50.0°F 43.0°F 77% 30.34 in 10.0 miles NNE 8.1 mph - N/A   Mostly Cloudy
1:53 PM 51.1°F 43.0°F 74% 30.33 in 10.0 miles NNE 8.1 mph - N/A   Mostly Cloudy
2:37 PM 51.8°F 42.8°F 71% 30.31 in 10.0 miles North 5.8 mph - N/A   Mostly Cloudy
2:53 PM 51.1°F 43.0°F 74% 30.33 in 10.0 miles North 5.8 mph - N/A   Mostly Cloudy
3:10 PM 51.8°F 42.8°F 71% 30.31 in 10.0 miles Calm Calm - N/A   Mostly Cloudy
3:53 PM 50.0°F 43.0°F 77% 30.34 in 10.0 miles NW 5.8 mph - N/A   Mostly Cloudy
4:18 PM 48.2°F 41.0°F 76% 30.31 in 10.0 miles North 6.9 mph - N/A   Scattered Clouds
4:53 PM 46.0°F 39.9°F 79% 30.34 in 10.0 miles North 6.9 mph - N/A   Scattered Clouds
5:53 PM 45.0°F 39.9°F 82% 30.33 in 10.0 miles North 8.1 mph - N/A   Partly Cloudy
6:53 PM 46.9°F 39.9°F 77% 30.33 in 10.0 miles NNE 8.1 mph - N/A   Partly Cloudy
7:53 PM 46.0°F 39.9°F 79% 30.33 in 10.0 miles NE 6.9 mph - N/A   Partly Cloudy
8:53 PM 44.1°F 39.0°F 82% 30.33 in 10.0 miles NNE 4.6 mph - N/A   Partly Cloudy
9:53 PM 43.0°F 39.0°F 86% 30.32 in 10.0 miles North 6.9 mph - N/A   Clear
10:53 PM 43.0°F 39.9°F 89% 30.31 in 9.0 miles NNE 6.9 mph - N/A   Clear
11:46 PM 42.8°F 39.2°F 87% 30.27 in 7.0 miles ENE 6.9 mph - N/A   Partly Cloudy
11:53 PM 42.1°F 39.0°F 89% 30.30 in 7.0 miles NE 5.8 mph - N/A   Partly Cloudy
Moon Phase
Nov. 14 Nov. 20 Nov. 28 Dec. 06 Dec. 13
Sunrise:07:13 AM (PST) Moon Rise:08:13 AM (PST)11/14
Sunset:04:33 PM (PST) Moon Set:05:23 PM (PST)11/14

Copyright © 2014 The Weather Underground, Inc.